Location: Unspecified
(44.0704°N, 88.6889°W)
Time: 20:25:19
(UTC+02:00)

Altair - Pass Details

Date: 24 June 2019
Orbit: 1501 x 1683 km, 47.2° (Epoch: 19 August)

Event Time Altitude Azimuth Distance (km) Brightness Sun altitude
Rises 01:54:04 0° 206° (SSW) 4,653 10.1 16.6°
Reaches altitude 10° 01:57:21 10° 198° (SSW) 3,693 9.6 16.0°
Maximum altitude 02:05:38 37° 135° (SE) 2,252 8.1 14.6°
Drops below altitude 10° 02:14:12 10° 73° (ENE) 3,830 9.2 13.1°
Sets 02:17:39 0° 65° (ENE) 4,845 9.7 12.6°
